owner,sensor,date,latitude,longitude,vertical_datum,sea_water_practical_salinity,qcFlag 
DISL,ioos:station:DISL:KATA:1,2012-11-01T00:00:00Z,30.2583,-88.2131,4.02,30.37,1111122 
DISL,ioos:station:DISL:KATA:1,2012-11-01T00:30:00Z,30.2583,-88.2131,4.058,30.47,1111122 
DISL,ioos:station:DISL:KATA:1,2012-11-01T01:00:00Z,30.2583,-88.2131,4.084,30.47,1111122 
DISL,ioos:station:DISL:KATA:1,2012-11-01T01:30:00Z,30.2583,-88.2131,4.119,30.43,1111122 
DISL,ioos:station:DISL:KATA:1,2012-11-01T02:00:00Z,30.2583,-88.2131,4.138,30.42,1111122 
DISL,ioos:station:DISL:KATA:1,2012-11-01T02:30:00Z,30.2583,-88.2131,4.157,30.87,1111122 
DISL,ioos:station:DISL:KATA:1,2012-11-01T03:00:00Z,30.2583,-88.2131,4.166,30.93,1111122 
DISL,ioos:station:DISL:KATA:1,2012-11-01T03:30:00Z,30.2583,-88.2131,4.179,30.9,1111122 
DISL,ioos:station:DISL:KATA:1,2012-11-01T04:00:00Z,30.2583,-88.2131,4.18,30.76,1111122 
DISL,ioos:station:DISL:KATA:1,2012-11-01T04:30:00Z,30.2583,-88.2131,4.177,29.74,1111122 
DISL,ioos:station:DISL:KATA:1,2012-11-01T05:00:00Z,30.2583,-88.2131,4.164,29.74,1111122 
DISL,ioos:station:DISL:KATA:1,2012-11-01T05:30:00Z,30.2583,-88.2131,4.151,29.97,1111122 
DISL,ioos:station:DISL:KATA:1,2012-11-01T06:00:00Z,30.2583,-88.2131,4.13,29.93,1111122 
DISL,ioos:station:DISL:KATA:1,2012-11-01T06:30:00Z,30.2583,-88.2131,4.099,30.56,1111122 
DISL,ioos:station:DISL:KATA:1,2012-11-01T07:00:00Z,30.2583,-88.2131,4.072,29.62,1111122 
DISL,ioos:station:DISL:KATA:1,2012-11-01T07:30:00Z,30.2583,-88.2131,4.033,29.68,1111122 
DISL,ioos:station:DISL:KATA:1,2012-11-01T08:00:00Z,30.2583,-88.2131,3.999,29.8,1111122 
DISL,ioos:station:DISL:KATA:1,2012-11-01T08:30:00Z,30.2583,-88.2131,3.958,29.68,1111122 
DISL,ioos:station:DISL:KATA:1,2012-11-01T09:00:00Z,30.2583,-88.2131,3.906,29.62,1111122 
DISL,ioos:station:DISL:KATA:1,2012-11-01T09:30:00Z,30.2583,-88.2131,3.856,30.67,1111122 
DISL,ioos:station:DISL:KATA:1,2012-11-01T10:00:00Z,30.2583,-88.2131,3.815,30.73,1111122 
DISL,ioos:station:DISL:KATA:1,2012-11-01T10:30:00Z,30.2583,-88.2131,3.783,30.14,1111122 
DISL,ioos:station:DISL:KATA:1,2012-11-01T11:00:00Z,30.2583,-88.2131,3.731,30.06,1111122 
DISL,ioos:station:DISL:KATA:1,2012-11-01T11:30:00Z,30.2583,-88.2131,3.681,29.8,1111122 
DISL,ioos:station:DISL:KATA:1,2012-11-01T12:00:00Z,30.2583,-88.2131,3.633,29.55,1111122 
DISL,ioos:station:DISL:KATA:1,2012-11-01T12:30:00Z,30.2583,-88.2131,3.594,29.54,1111122 
DISL,ioos:station:DISL:KATA:1,2012-11-01T13:00:00Z,30.2583,-88.2131,3.564,29.37,1111122 
DISL,ioos:station:DISL:KATA:1,2012-11-01T13:30:00Z,30.2583,-88.2131,3.54,29.46,1111122 
DISL,ioos:station:DISL:KATA:1,2012-11-01T14:00:00Z,30.2583,-88.2131,3.53,29.24,1111122 
DISL,ioos:station:DISL:KATA:1,2012-11-01T14:30:00Z,30.2583,-88.2131,3.532,29.16,1111122 
DISL,ioos:station:DISL:KATA:1,2012-11-01T15:00:00Z,30.2583,-88.2131,3.553,29.23,1111122 
DISL,ioos:station:DISL:KATA:1,2012-11-01T15:30:00Z,30.2583,-88.2131,3.587,29.15,1111122 
DISL,ioos:station:DISL:KATA:1,2012-11-01T16:00:00Z,30.2583,-88.2131,3.626,29.8,1111122 
DISL,ioos:station:DISL:KATA:1,2012-11-01T16:30:00Z,30.2583,-88.2131,3.662,29.74,1111122 
DISL,ioos:station:DISL:KATA:1,2012-11-01T17:00:00Z,30.2583,-88.2131,3.698,29.55,1111122 
DISL,ioos:station:DISL:KATA:1,2012-11-01T17:30:00Z,30.2583,-88.2131,3.73,29.8,1111122 
DISL,ioos:station:DISL:KATA:1,2012-11-01T18:00:00Z,30.2583,-88.2131,3.755,29.6,1111122 
DISL,ioos:station:DISL:KATA:1,2012-11-01T18:30:00Z,30.2583,-88.2131,3.781,29.41,1111122 
DISL,ioos:station:DISL:KATA:1,2012-11-01T19:00:00Z,30.2583,-88.2131,3.817,29.46,1111122 
DISL,ioos:station:DISL:KATA:1,2012-11-01T19:30:00Z,30.2583,-88.2131,3.849,29.47,1111122 
DISL,ioos:station:DISL:KATA:1,2012-11-01T20:00:00Z,30.2583,-88.2131,3.878,29.44,1111122 
DISL,ioos:station:DISL:KATA:1,2012-11-01T20:30:00Z,30.2583,-88.2131,3.916,29.46,1111122 
DISL,ioos:station:DISL:KATA:1,2012-11-01T21:00:00Z,30.2583,-88.2131,3.949,29.62,1111122 
DISL,ioos:station:DISL:KATA:1,2012-11-01T21:30:00Z,30.2583,-88.2131,3.984,29.47,1111122 
DISL,ioos:station:DISL:KATA:1,2012-11-01T22:00:00Z,30.2583,-88.2131,4.018,29.92,1111122 
DISL,ioos:station:DISL:KATA:1,2012-11-01T22:30:00Z,30.2583,-88.2131,4.044,29.79,1111122 
DISL,ioos:station:DISL:KATA:1,2012-11-01T23:00:00Z,30.2583,-88.2131,4.075,29.71,1111122 
DISL,ioos:station:DISL:KATA:1,2012-11-01T23:30:00Z,30.2583,-88.2131,4.102,30.67,1111122 
DISL,ioos:station:DISL:KATA:1,2012-11-02T00:00:00Z,30.2583,-88.2131,4.129,29.8,1111122 
DISL,ioos:station:DISL:KATA:1,2012-11-02T00:30:00Z,30.2583,-88.2131,4.155,30.63,1111122 
DISL,ioos:station:DISL:KATA:1,2012-11-02T01:00:00Z,30.2583,-88.2131,4.182,30.56,1111122 
DISL,ioos:station:DISL:KATA:1,2012-11-02T01:30:00Z,30.2583,-88.2131,4.206,30.36,1111122 
DISL,ioos:station:DISL:KATA:1,2012-11-02T02:00:00Z,30.2583,-88.2131,4.234,30.12,1111122 
DISL,ioos:station:DISL:KATA:1,2012-11-02T02:30:00Z,30.2583,-88.2131,4.254,29.71,1111122 
DISL,ioos:station:DISL:KATA:1,2012-11-02T03:00:00Z,30.2583,-88.2131,4.27,29.66,1111122 
DISL,ioos:station:DISL:KATA:1,2012-11-02T03:30:00Z,30.2583,-88.2131,4.278,29.71,1111122 
DISL,ioos:station:DISL:KATA:1,2012-11-02T04:00:00Z,30.2583,-88.2131,4.282,29.46,1111122 
DISL,ioos:station:DISL:KATA:1,2012-11-02T04:30:00Z,30.2583,-88.2131,4.276,29.83,1111122 
DISL,ioos:station:DISL:KATA:1,2012-11-02T05:00:00Z,30.2583,-88.2131,4.264,29.82,1111122 
DISL,ioos:station:DISL:KATA:1,2012-11-02T05:30:00Z,30.2583,-88.2131,4.246,29.56,1111122 
DISL,ioos:station:DISL:KATA:1,2012-11-02T06:00:00Z,30.2583,-88.2131,4.222,29.81,1111122 
DISL,ioos:station:DISL:KATA:1,2012-11-02T06:30:00Z,30.2583,-88.2131,4.203,30.18,1111122 
DISL,ioos:station:DISL:KATA:1,2012-11-02T07:00:00Z,30.2583,-88.2131,4.18,30.21,1111122 
DISL,ioos:station:DISL:KATA:1,2012-11-02T07:30:00Z,30.2583,-88.2131,4.159,29.9,1111122 
DISL,ioos:station:DISL:KATA:1,2012-11-02T08:00:00Z,30.2583,-88.2131,4.134,30.9,1111122 
DISL,ioos:station:DISL:KATA:1,2012-11-02T08:30:00Z,30.2583,-88.2131,4.098,30.88,1111122 
DISL,ioos:station:DISL:KATA:1,2012-11-02T09:00:00Z,30.2583,-88.2131,4.059,30.81,1111122 
DISL,ioos:station:DISL:KATA:1,2012-11-02T09:30:00Z,30.2583,-88.2131,4.014,30.68,1111122 
DISL,ioos:station:DISL:KATA:1,2012-11-02T10:00:00Z,30.2583,-88.2131,3.964,30.6,1111122 
DISL,ioos:station:DISL:KATA:1,2012-11-02T10:30:00Z,30.2583,-88.2131,3.911,30.59,1111122 
DISL,ioos:station:DISL:KATA:1,2012-11-02T11:00:00Z,30.2583,-88.2131,3.866,30.6,1111122 
DISL,ioos:station:DISL:KATA:1,2012-11-02T11:30:00Z,30.2583,-88.2131,3.823,30.63,1111122 
DISL,ioos:station:DISL:KATA:1,2012-11-02T12:00:00Z,30.2583,-88.2131,3.79,30.67,1111122 
DISL,ioos:station:DISL:KATA:1,2012-11-02T12:30:00Z,30.2583,-88.2131,3.766,30.51,1111122 
DISL,ioos:station:DISL:KATA:1,2012-11-02T13:00:00Z,30.2583,-88.2131,3.752,29.76,1111122 
DISL,ioos:station:DISL:KATA:1,2012-11-02T13:30:00Z,30.2583,-88.2131,3.743,29.81,1111122 
DISL,ioos:station:DISL:KATA:1,2012-11-02T14:00:00Z,30.2583,-88.2131,3.737,29.88,1111122 
DISL,ioos:station:DISL:KATA:1,2012-11-02T14:30:00Z,30.2583,-88.2131,3.738,30.31,1111122 
DISL,ioos:station:DISL:KATA:1,2012-11-02T15:00:00Z,30.2583,-88.2131,3.74,29.74,1111122 
DISL,ioos:station:DISL:KATA:1,2012-11-02T15:30:00Z,30.2583,-88.2131,3.75,29.36,1111122 
DISL,ioos:station:DISL:KATA:1,2012-11-02T16:00:00Z,30.2583,-88.2131,3.766,29.36,1111122 
DISL,ioos:station:DISL:KATA:1,2012-11-02T16:30:00Z,30.2583,-88.2131,3.779,29.45,1111122 
DISL,ioos:station:DISL:KATA:1,2012-11-02T17:00:00Z,30.2583,-88.2131,3.785,29.38,1111122 
DISL,ioos:station:DISL:KATA:1,2012-11-02T17:30:00Z,30.2583,-88.2131,3.788,29.35,1111122 
DISL,ioos:station:DISL:KATA:1,2012-11-02T18:00:00Z,30.2583,-88.2131,3.794,29.45,1111122 
DISL,ioos:station:DISL:KATA:1,2012-11-02T18:30:00Z,30.2583,-88.2131,3.807,29.3,1111122 
DISL,ioos:station:DISL:KATA:1,2012-11-02T19:00:00Z,30.2583,-88.2131,3.823,29.45,1111122 
DISL,ioos:station:DISL:KATA:1,2012-11-02T19:30:00Z,30.2583,-88.2131,3.839,30.19,1111122 
DISL,ioos:station:DISL:KATA:1,2012-11-02T20:00:00Z,30.2583,-88.2131,3.861,30.24,1111122 
DISL,ioos:station:DISL:KATA:1,2012-11-02T20:30:00Z,30.2583,-88.2131,3.897,30.34,1111122 
DISL,ioos:station:DISL:KATA:1,2012-11-02T21:00:00Z,30.2583,-88.2131,3.94,30.24,1111122 
DISL,ioos:station:DISL:KATA:1,2012-11-02T21:30:00Z,30.2583,-88.2131,3.969,30.4,1111122 
DISL,ioos:station:DISL:KATA:1,2012-11-02T22:00:00Z,30.2583,-88.2131,4.001,30.41,1111122 
DISL,ioos:station:DISL:KATA:1,2012-11-02T22:30:00Z,30.2583,-88.2131,4.028,30.43,1111122 
DISL,ioos:station:DISL:KATA:1,2012-11-02T23:00:00Z,30.2583,-88.2131,4.05,30.46,1111122 
DISL,ioos:station:DISL:KATA:1,2012-11-02T23:30:00Z,30.2583,-88.2131,4.071,30.59,1111122 
DISL,ioos:station:DISL:KATA:1,2012-11-03T00:00:00Z,30.2583,-88.2131,4.094,30.62,1111122 
DISL,ioos:station:DISL:KATA:1,2012-11-03T00:30:00Z,30.2583,-88.2131,4.12,30.57,1111122 
DISL,ioos:station:DISL:KATA:1,2012-11-03T01:00:00Z,30.2583,-88.2131,4.148,30.56,1111122 
DISL,ioos:station:DISL:KATA:1,2012-11-03T01:30:00Z,30.2583,-88.2131,4.179,30.56,1111122 
DISL,ioos:station:DISL:KATA:1,2012-11-03T02:00:00Z,30.2583,-88.2131,4.212,30.55,1111122 
DISL,ioos:station:DISL:KATA:1,2012-11-03T02:30:00Z,30.2583,-88.2131,4.239,30.58,1111122 
DISL,ioos:station:DISL:KATA:1,2012-11-03T03:00:00Z,30.2583,-88.2131,4.266,30.7,1111122 
DISL,ioos:station:DISL:KATA:1,2012-11-03T03:30:00Z,30.2583,-88.2131,4.282,30.82,1111122 
DISL,ioos:station:DISL:KATA:1,2012-11-03T04:00:00Z,30.2583,-88.2131,4.288,30.83,1111122 
DISL,ioos:station:DISL:KATA:1,2012-11-03T04:30:00Z,30.2583,-88.2131,4.28,30.85,1111122 
DISL,ioos:station:DISL:KATA:1,2012-11-03T05:00:00Z,30.2583,-88.2131,4.268,30.91,1111122 
DISL,ioos:station:DISL:KATA:1,2012-11-03T05:30:00Z,30.2583,-88.2131,4.252,30.93,1111122 
DISL,ioos:station:DISL:KATA:1,2012-11-03T06:00:00Z,30.2583,-88.2131,4.234,30.95,1111122 
DISL,ioos:station:DISL:KATA:1,2012-11-03T06:30:00Z,30.2583,-88.2131,4.22,31.01,1111122 
DISL,ioos:station:DISL:KATA:1,2012-11-03T07:00:00Z,30.2583,-88.2131,4.198,30.99,1111122 
DISL,ioos:station:DISL:KATA:1,2012-11-03T07:30:00Z,30.2583,-88.2131,4.181,31.02,1111122 
DISL,ioos:station:DISL:KATA:1,2012-11-03T08:00:00Z,30.2583,-88.2131,4.151,30.99,1111122 
DISL,ioos:station:DISL:KATA:1,2012-11-03T08:30:00Z,30.2583,-88.2131,4.118,30.97,1111122 
DISL,ioos:station:DISL:KATA:1,2012-11-03T09:00:00Z,30.2583,-88.2131,4.081,30.97,1111122 
DISL,ioos:station:DISL:KATA:1,2012-11-03T09:30:00Z,30.2583,-88.2131,4.042,30.89,1111122 
DISL,ioos:station:DISL:KATA:1,2012-11-03T10:00:00Z,30.2583,-88.2131,3.998,30.87,1111122 
DISL,ioos:station:DISL:KATA:1,2012-11-03T10:30:00Z,30.2583,-88.2131,3.954,30.81,1111122 
DISL,ioos:station:DISL:KATA:1,2012-11-03T11:00:00Z,30.2583,-88.2131,3.913,30.73,1111122 
DISL,ioos:station:DISL:KATA:1,2012-11-03T11:30:00Z,30.2583,-88.2131,3.871,30.65,1111122 
DISL,ioos:station:DISL:KATA:1,2012-11-03T12:00:00Z,30.2583,-88.2131,3.835,30.57,1111122 
DISL,ioos:station:DISL:KATA:1,2012-11-03T12:30:00Z,30.2583,-88.2131,3.806,29.57,1111122 
DISL,ioos:station:DISL:KATA:1,2012-11-03T13:00:00Z,30.2583,-88.2131,3.781,30.48,1111122 
DISL,ioos:station:DISL:KATA:1,2012-11-03T13:30:00Z,30.2583,-88.2131,3.757,30.46,1111122 
DISL,ioos:station:DISL:KATA:1,2012-11-03T14:00:00Z,30.2583,-88.2131,3.741,30.51,1111122 
DISL,ioos:station:DISL:KATA:1,2012-11-03T14:30:00Z,30.2583,-88.2131,3.732,30.53,1111122 
DISL,ioos:station:DISL:KATA:1,2012-11-03T15:00:00Z,30.2583,-88.2131,3.727,30.52,1111122 
DISL,ioos:station:DISL:KATA:1,2012-11-03T15:30:00Z,30.2583,-88.2131,3.726,30.48,1111122 
DISL,ioos:station:DISL:KATA:1,2012-11-03T16:00:00Z,30.2583,-88.2131,3.737,30.46,1111122 
DISL,ioos:station:DISL:KATA:1,2012-11-03T16:30:00Z,30.2583,-88.2131,3.743,30.42,1111122 
DISL,ioos:station:DISL:KATA:1,2012-11-03T17:00:00Z,30.2583,-88.2131,3.756,30.45,1111122 
DISL,ioos:station:DISL:KATA:1,2012-11-03T17:30:00Z,30.2583,-88.2131,3.774,30.44,1111122 
DISL,ioos:station:DISL:KATA:1,2012-11-03T18:00:00Z,30.2583,-88.2131,3.8,30.48,1111122 
DISL,ioos:station:DISL:KATA:1,2012-11-03T18:30:00Z,30.2583,-88.2131,3.814,30.53,1111122 
DISL,ioos:station:DISL:KATA:1,2012-11-03T19:00:00Z,30.2583,-88.2131,3.832,30.54,1111122 
DISL,ioos:station:DISL:KATA:1,2012-11-03T19:30:00Z,30.2583,-88.2131,3.848,30.54,1111122 
DISL,ioos:station:DISL:KATA:1,2012-11-03T20:00:00Z,30.2583,-88.2131,3.868,30.53,1111122 
DISL,ioos:station:DISL:KATA:1,2012-11-03T20:30:00Z,30.2583,-88.2131,3.891,30.55,1111122 
DISL,ioos:station:DISL:KATA:1,2012-11-03T21:00:00Z,30.2583,-88.2131,3.914,30.56,1111122 
DISL,ioos:station:DISL:KATA:1,2012-11-03T21:30:00Z,30.2583,-88.2131,3.937,30.56,1111122 
DISL,ioos:station:DISL:KATA:1,2012-11-03T22:00:00Z,30.2583,-88.2131,3.971,30.56,1111122 
DISL,ioos:station:DISL:KATA:1,2012-11-03T22:30:00Z,30.2583,-88.2131,3.996,30.58,1111122 
DISL,ioos:station:DISL:KATA:1,2012-11-03T23:00:00Z,30.2583,-88.2131,4.025,30.59,1111122 
DISL,ioos:station:DISL:KATA:1,2012-11-03T23:30:00Z,30.2583,-88.2131,4.05,30.59,1111122 
DISL,ioos:station:DISL:KATA:1,2012-11-04T00:00:00Z,30.2583,-88.2131,4.068,30.61,1111122 
DISL,ioos:station:DISL:KATA:1,2012-11-04T00:30:00Z,30.2583,-88.2131,4.099,30.62,1111122 
DISL,ioos:station:DISL:KATA:1,2012-11-04T01:00:00Z,30.2583,-88.2131,4.119,30.63,1111122 
DISL,ioos:station:DISL:KATA:1,2012-11-04T01:30:00Z,30.2583,-88.2131,4.146,30.64,1111122 
DISL,ioos:station:DISL:KATA:1,2012-11-04T02:00:00Z,30.2583,-88.2131,4.173,30.66,1111122 
DISL,ioos:station:DISL:KATA:1,2012-11-04T02:30:00Z,30.2583,-88.2131,4.194,30.7,1111122 
DISL,ioos:station:DISL:KATA:1,2012-11-04T03:00:00Z,30.2583,-88.2131,4.216,30.74,1111122 
DISL,ioos:station:DISL:KATA:1,2012-11-04T03:30:00Z,30.2583,-88.2131,4.233,30.77,1111122 
DISL,ioos:station:DISL:KATA:1,2012-11-04T04:00:00Z,30.2583,-88.2131,4.248,30.79,1111122 
DISL,ioos:station:DISL:KATA:1,2012-11-04T04:30:00Z,30.2583,-88.2131,4.254,30.85,1111122 
DISL,ioos:station:DISL:KATA:1,2012-11-04T05:00:00Z,30.2583,-88.2131,4.252,30.92,1111122 
DISL,ioos:station:DISL:KATA:1,2012-11-04T05:30:00Z,30.2583,-88.2131,4.248,31.15,1111122 
DISL,ioos:station:DISL:KATA:1,2012-11-04T06:00:00Z,30.2583,-88.2131,4.24,31.45,1111122 
DISL,ioos:station:DISL:KATA:1,2012-11-04T06:30:00Z,30.2583,-88.2131,4.221,31.75,1111122 
DISL,ioos:station:DISL:KATA:1,2012-11-04T07:00:00Z,30.2583,-88.2131,4.206,31.58,1111122 
DISL,ioos:station:DISL:KATA:1,2012-11-04T07:30:00Z,30.2583,-88.2131,4.183,31.67,1111122 
DISL,ioos:station:DISL:KATA:1,2012-11-04T08:00:00Z,30.2583,-88.2131,4.155,31.64,1111122 
DISL,ioos:station:DISL:KATA:1,2012-11-04T08:30:00Z,30.2583,-88.2131,4.123,31.71,1111122 
DISL,ioos:station:DISL:KATA:1,2012-11-04T09:00:00Z,30.2583,-88.2131,4.091,31.71,1111122 
DISL,ioos:station:DISL:KATA:1,2012-11-04T09:30:00Z,30.2583,-88.2131,4.062,31.65,1111122 
DISL,ioos:station:DISL:KATA:1,2012-11-04T10:00:00Z,30.2583,-88.2131,4.03,31.63,1111122 
DISL,ioos:station:DISL:KATA:1,2012-11-04T10:30:00Z,30.2583,-88.2131,3.998,31.5,1111122 
DISL,ioos:station:DISL:KATA:1,2012-11-04T11:00:00Z,30.2583,-88.2131,3.962,31.27,1111122 
DISL,ioos:station:DISL:KATA:1,2012-11-04T11:30:00Z,30.2583,-88.2131,3.931,31.0,1111122 
DISL,ioos:station:DISL:KATA:1,2012-11-04T12:00:00Z,30.2583,-88.2131,3.89,30.77,1111122 
DISL,ioos:station:DISL:KATA:1,2012-11-04T12:30:00Z,30.2583,-88.2131,3.854,29.15,1111122 
DISL,ioos:station:DISL:KATA:1,2012-11-04T13:00:00Z,30.2583,-88.2131,3.818,29.18,1111122 
DISL,ioos:station:DISL:KATA:1,2012-11-04T13:30:00Z,30.2583,-88.2131,3.784,29.11,1111122 
DISL,ioos:station:DISL:KATA:1,2012-11-04T14:00:00Z,30.2583,-88.2131,3.759,29.19,1111122 
DISL,ioos:station:DISL:KATA:1,2012-11-04T14:30:00Z,30.2583,-88.2131,3.736,29.17,1111122 
DISL,ioos:station:DISL:KATA:1,2012-11-04T15:00:00Z,30.2583,-88.2131,3.772,28.92,1111122 
DISL,ioos:station:DISL:KATA:1,2012-11-04T15:30:00Z,30.2583,-88.2131,3.724,29.12,1111122 
DISL,ioos:station:DISL:KATA:1,2012-11-04T16:00:00Z,30.2583,-88.2131,3.715,29.06,1111122 
DISL,ioos:station:DISL:KATA:1,2012-11-04T16:30:00Z,30.2583,-88.2131,3.714,29.04,1111122 
DISL,ioos:station:DISL:KATA:1,2012-11-04T17:00:00Z,30.2583,-88.2131,3.718,28.98,1111122 
DISL,ioos:station:DISL:KATA:1,2012-11-04T17:30:00Z,30.2583,-88.2131,3.731,28.99,1111122 
DISL,ioos:station:DISL:KATA:1,2012-11-04T18:00:00Z,30.2583,-88.2131,3.742,29.0,1111122 
DISL,ioos:station:DISL:KATA:1,2012-11-04T18:30:00Z,30.2583,-88.2131,3.757,28.99,1111122 
DISL,ioos:station:DISL:KATA:1,2012-11-04T19:00:00Z,30.2583,-88.2131,3.764,29.13,1111122 
DISL,ioos:station:DISL:KATA:1,2012-11-04T19:30:00Z,30.2583,-88.2131,3.786,29.2,1111122 
DISL,ioos:station:DISL:KATA:1,2012-11-04T20:00:00Z,30.2583,-88.2131,3.81,29.06,1111122 
DISL,ioos:station:DISL:KATA:1,2012-11-04T20:30:00Z,30.2583,-88.2131,3.885,29.15,1111122 
DISL,ioos:station:DISL:KATA:1,2012-11-04T21:00:00Z,30.2583,-88.2131,3.882,29.11,1111122 
DISL,ioos:station:DISL:KATA:1,2012-11-04T21:30:00Z,30.2583,-88.2131,3.878,28.95,1111122 
DISL,ioos:station:DISL:KATA:1,2012-11-04T22:00:00Z,30.2583,-88.2131,3.908,28.85,1111122 
DISL,ioos:station:DISL:KATA:1,2012-11-04T22:30:00Z,30.2583,-88.2131,3.884,29.42,1111122 
DISL,ioos:station:DISL:KATA:1,2012-11-04T23:00:00Z,30.2583,-88.2131,3.892,30.51,1111122 
DISL,ioos:station:DISL:KATA:1,2012-11-04T23:30:00Z,30.2583,-88.2131,3.918,30.72,1111122 
DISL,ioos:station:DISL:KATA:1,2012-11-05T00:00:00Z,30.2583,-88.2131,3.962,30.74,1111122 
DISL,ioos:station:DISL:KATA:1,2012-11-05T00:30:00Z,30.2583,-88.2131,3.994,30.57,1111122 
DISL,ioos:station:DISL:KATA:1,2012-11-05T01:00:00Z,30.2583,-88.2131,4.012,30.55,1111122 
DISL,ioos:station:DISL:KATA:1,2012-11-05T01:30:00Z,30.2583,-88.2131,4.061,30.56,1111122 
DISL,ioos:station:DISL:KATA:1,2012-11-05T02:00:00Z,30.2583,-88.2131,4.117,30.6,1111122 
DISL,ioos:station:DISL:KATA:1,2012-11-05T02:30:00Z,30.2583,-88.2131,4.143,30.61,1111122 
DISL,ioos:station:DISL:KATA:1,2012-11-05T03:00:00Z,30.2583,-88.2131,4.16,30.65,1111122 
DISL,ioos:station:DISL:KATA:1,2012-11-05T03:30:00Z,30.2583,-88.2131,4.145,30.65,1111122 
DISL,ioos:station:DISL:KATA:1,2012-11-05T04:00:00Z,30.2583,-88.2131,4.139,30.67,1111122 
DISL,ioos:station:DISL:KATA:1,2012-11-05T04:30:00Z,30.2583,-88.2131,4.117,30.7,1111122 
DISL,ioos:station:DISL:KATA:1,2012-11-05T05:00:00Z,30.2583,-88.2131,4.097,30.72,1111122 
DISL,ioos:station:DISL:KATA:1,2012-11-05T05:30:00Z,30.2583,-88.2131,4.094,30.75,1111122 
DISL,ioos:station:DISL:KATA:1,2012-11-05T06:00:00Z,30.2583,-88.2131,4.102,30.75,1111122 
DISL,ioos:station:DISL:KATA:1,2012-11-05T06:30:00Z,30.2583,-88.2131,4.122,30.76,1111122 
DISL,ioos:station:DISL:KATA:1,2012-11-05T07:00:00Z,30.2583,-88.2131,4.125,30.76,1111122 
DISL,ioos:station:DISL:KATA:1,2012-11-05T07:30:00Z,30.2583,-88.2131,4.117,30.73,1111122 
DISL,ioos:station:DISL:KATA:1,2012-11-05T08:00:00Z,30.2583,-88.2131,4.108,30.7,1111122 
DISL,ioos:station:DISL:KATA:1,2012-11-05T08:30:00Z,30.2583,-88.2131,4.085,30.67,1111122 
DISL,ioos:station:DISL:KATA:1,2012-11-05T09:00:00Z,30.2583,-88.2131,4.064,30.66,1111122 
DISL,ioos:station:DISL:KATA:1,2012-11-05T09:30:00Z,30.2583,-88.2131,4.038,30.64,1111122 
DISL,ioos:station:DISL:KATA:1,2012-11-05T10:00:00Z,30.2583,-88.2131,4.008,30.62,1111122 
DISL,ioos:station:DISL:KATA:1,2012-11-05T10:30:00Z,30.2583,-88.2131,3.978,30.58,1111122 
DISL,ioos:station:DISL:KATA:1,2012-11-05T11:00:00Z,30.2583,-88.2131,3.944,30.58,1111122 
DISL,ioos:station:DISL:KATA:1,2012-11-05T11:30:00Z,30.2583,-88.2131,3.92,30.53,1111122 
DISL,ioos:station:DISL:KATA:1,2012-11-05T12:00:00Z,30.2583,-88.2131,3.886,30.15,1111122 
DISL,ioos:station:DISL:KATA:1,2012-11-05T12:30:00Z,30.2583,-88.2131,3.863,29.04,1111122 
DISL,ioos:station:DISL:KATA:1,2012-11-05T13:00:00Z,30.2583,-88.2131,3.833,28.98,1111122 
DISL,ioos:station:DISL:KATA:1,2012-11-05T13:30:00Z,30.2583,-88.2131,3.809,28.76,1111122 
DISL,ioos:station:DISL:KATA:1,2012-11-05T14:00:00Z,30.2583,-88.2131,3.8,28.73,1111122 
DISL,ioos:station:DISL:KATA:1,2012-11-05T14:30:00Z,30.2583,-88.2131,3.785,28.73,1111122 
DISL,ioos:station:DISL:KATA:1,2012-11-05T15:00:00Z,30.2583,-88.2131,3.774,28.7,1111122 
DISL,ioos:station:DISL:KATA:1,2012-11-05T15:30:00Z,30.2583,-88.2131,3.764,28.56,1111122 
DISL,ioos:station:DISL:KATA:1,2012-11-05T16:00:00Z,30.2583,-88.2131,3.762,29.48,1111122 
DISL,ioos:station:DISL:KATA:1,2012-11-05T16:30:00Z,30.2583,-88.2131,3.765,28.44,1111122 
DISL,ioos:station:DISL:KATA:1,2012-11-05T17:00:00Z,30.2583,-88.2131,3.769,28.21,1111122 
DISL,ioos:station:DISL:KATA:1,2012-11-05T17:30:00Z,30.2583,-88.2131,3.777,28.16,1111122 
DISL,ioos:station:DISL:KATA:1,2012-11-05T18:00:00Z,30.2583,-88.2131,3.791,28.36,1111122 
DISL,ioos:station:DISL:KATA:1,2012-11-05T18:30:00Z,30.2583,-88.2131,3.811,28.38,1111122 
DISL,ioos:station:DISL:KATA:1,2012-11-05T19:00:00Z,30.2583,-88.2131,3.819,28.45,1111122 
DISL,ioos:station:DISL:KATA:1,2012-11-05T19:30:00Z,30.2583,-88.2131,3.826,28.69,1111122 
DISL,ioos:station:DISL:KATA:1,2012-11-05T20:00:00Z,30.2583,-88.2131,3.838,28.71,1111122 
DISL,ioos:station:DISL:KATA:1,2012-11-05T20:30:00Z,30.2583,-88.2131,3.85,28.62,1111122 
DISL,ioos:station:DISL:KATA:1,2012-11-05T21:00:00Z,30.2583,-88.2131,3.872,28.65,1111122 
DISL,ioos:station:DISL:KATA:1,2012-11-05T21:30:00Z,30.2583,-88.2131,3.889,28.66,1111122 
DISL,ioos:station:DISL:KATA:1,2012-11-05T22:00:00Z,30.2583,-88.2131,3.903,28.73,1111122 
DISL,ioos:station:DISL:KATA:1,2012-11-05T22:30:00Z,30.2583,-88.2131,3.926,28.78,1111122 
DISL,ioos:station:DISL:KATA:1,2012-11-05T23:00:00Z,30.2583,-88.2131,3.935,28.79,1111122 
DISL,ioos:station:DISL:KATA:1,2012-11-05T23:30:00Z,30.2583,-88.2131,3.934,30.33,1111122 
DISL,ioos:station:DISL:KATA:1,2012-11-06T00:00:00Z,30.2583,-88.2131,3.953,30.36,1111122 
DISL,ioos:station:DISL:KATA:1,2012-11-06T00:30:00Z,30.2583,-88.2131,3.989,30.41,1111122 
DISL,ioos:station:DISL:KATA:1,2012-11-06T01:00:00Z,30.2583,-88.2131,3.999,30.46,1111122 
DISL,ioos:station:DISL:KATA:1,2012-11-06T01:30:00Z,30.2583,-88.2131,4.017,30.48,1111122 
DISL,ioos:station:DISL:KATA:1,2012-11-06T02:00:00Z,30.2583,-88.2131,4.055,30.52,1111122 
DISL,ioos:station:DISL:KATA:1,2012-11-06T02:30:00Z,30.2583,-88.2131,4.091,30.52,1111122 
DISL,ioos:station:DISL:KATA:1,2012-11-06T03:00:00Z,30.2583,-88.2131,4.121,30.61,1111122 
DISL,ioos:station:DISL:KATA:1,2012-11-06T03:30:00Z,30.2583,-88.2131,4.152,30.66,1111122 
DISL,ioos:station:DISL:KATA:1,2012-11-06T04:00:00Z,30.2583,-88.2131,4.184,30.73,1111122 
DISL,ioos:station:DISL:KATA:1,2012-11-06T04:30:00Z,30.2583,-88.2131,4.214,30.78,1111122 
DISL,ioos:station:DISL:KATA:1,2012-11-06T05:00:00Z,30.2583,-88.2131,4.239,30.76,1111122 
DISL,ioos:station:DISL:KATA:1,2012-11-06T05:30:00Z,30.2583,-88.2131,4.267,30.74,1111122 
DISL,ioos:station:DISL:KATA:1,2012-11-06T06:00:00Z,30.2583,-88.2131,4.331,30.74,1111122 
DISL,ioos:station:DISL:KATA:1,2012-11-06T06:30:00Z,30.2583,-88.2131,4.332,30.74,1111122 
DISL,ioos:station:DISL:KATA:1,2012-11-06T07:00:00Z,30.2583,-88.2131,4.328,30.76,1111122 
DISL,ioos:station:DISL:KATA:1,2012-11-06T07:30:00Z,30.2583,-88.2131,4.224,30.76,1111122 
DISL,ioos:station:DISL:KATA:1,2012-11-06T08:00:00Z,30.2583,-88.2131,4.141,30.74,1111122 
DISL,ioos:station:DISL:KATA:1,2012-11-06T08:30:00Z,30.2583,-88.2131,4.102,30.71,1111122 
DISL,ioos:station:DISL:KATA:1,2012-11-06T09:00:00Z,30.2583,-88.2131,4.087,30.71,1111122 
DISL,ioos:station:DISL:KATA:1,2012-11-06T09:30:00Z,30.2583,-88.2131,4.037,30.72,1111122 
DISL,ioos:station:DISL:KATA:1,2012-11-06T10:00:00Z,30.2583,-88.2131,3.98,30.7,1111122 
DISL,ioos:station:DISL:KATA:1,2012-11-06T10:30:00Z,30.2583,-88.2131,3.955,30.64,1111122 
DISL,ioos:station:DISL:KATA:1,2012-11-06T11:00:00Z,30.2583,-88.2131,3.943,30.46,1111122 
DISL,ioos:station:DISL:KATA:1,2012-11-06T11:30:00Z,30.2583,-88.2131,3.92,30.45,1111122 
DISL,ioos:station:DISL:KATA:1,2012-11-06T12:00:00Z,30.2583,-88.2131,3.949,30.41,1111122 
DISL,ioos:station:DISL:KATA:1,2012-11-06T12:30:00Z,30.2583,-88.2131,3.971,30.31,1111122 
DISL,ioos:station:DISL:KATA:1,2012-11-06T13:00:00Z,30.2583,-88.2131,3.979,29.8,1111122 
DISL,ioos:station:DISL:KATA:1,2012-11-06T13:30:00Z,30.2583,-88.2131,3.975,29.48,1111122 
DISL,ioos:station:DISL:KATA:1,2012-11-06T14:00:00Z,30.2583,-88.2131,3.933,29.12,1111122 